Location: Nelson
(41.2830°S, 173.2830°E)
Time: 19:23:37
(UTC+12:00)

ATLAS CENTAUR R/B - Pass Details

Date: 14 May 2021
Orbit: 472 x 671 km, 64.6° (Epoch: 13 June)

Event Time Altitude Azimuth Distance (km) Brightness Sun altitude
Rises 19:06:37 0° 202° (SSW) 2,864 5.2 -20.2°
Reaches altitude 10° 19:09:30 10° 184° (S) 1,912 4.0 -20.8°
Enters shadow 19:10:28 14° 174° (S) 1,659 3.6 -20.9°
